owner,sensor,date,latitude,longitude,vertical_datum,sea_water_practical_salinity,qcFlag 
COMPS,ioos:station:USF.COMPS:NFB:1,2009-05-01T00:00:00Z,25.0840,-81.0960,1.0,30.495,1111122 
COMPS,ioos:station:USF.COMPS:NFB:1,2009-05-01T00:06:00Z,25.0840,-81.0960,1.0,30.653,1111122 
COMPS,ioos:station:USF.COMPS:NFB:1,2009-05-01T00:12:00Z,25.0840,-81.0960,1.0,30.732,1111122 
COMPS,ioos:station:USF.COMPS:NFB:1,2009-05-01T00:18:00Z,25.0840,-81.0960,1.0,30.66,1111122 
COMPS,ioos:station:USF.COMPS:NFB:1,2009-05-01T00:24:00Z,25.0840,-81.0960,1.0,30.667,1111122 
COMPS,ioos:station:USF.COMPS:NFB:1,2009-05-01T00:30:00Z,25.0840,-81.0960,1.0,30.68,1111122 
COMPS,ioos:station:USF.COMPS:NFB:1,2009-05-01T00:36:00Z,25.0840,-81.0960,1.0,30.68,1111122 
COMPS,ioos:station:USF.COMPS:NFB:1,2009-05-01T00:42:00Z,25.0840,-81.0960,1.0,30.746,1111122 
COMPS,ioos:station:USF.COMPS:NFB:1,2009-05-01T00:48:00Z,25.0840,-81.0960,1.0,30.746,1111122 
COMPS,ioos:station:USF.COMPS:NFB:1,2009-05-01T00:54:00Z,25.0840,-81.0960,1.0,30.674,1111122 
COMPS,ioos:station:USF.COMPS:NFB:1,2009-05-01T01:00:00Z,25.0840,-81.0960,1.0,30.825,1111122 
COMPS,ioos:station:USF.COMPS:NFB:1,2009-05-01T01:06:00Z,25.0840,-81.0960,1.0,30.832,1111122 
COMPS,ioos:station:USF.COMPS:NFB:1,2009-05-01T01:12:00Z,25.0840,-81.0960,1.0,30.825,1111122 
COMPS,ioos:station:USF.COMPS:NFB:1,2009-05-01T01:18:00Z,25.0840,-81.0960,1.0,30.898,1111122 
COMPS,ioos:station:USF.COMPS:NFB:1,2009-05-01T01:24:00Z,25.0840,-81.0960,1.0,30.898,1111122 
COMPS,ioos:station:USF.COMPS:NFB:1,2009-05-01T01:30:00Z,25.0840,-81.0960,1.0,31.029,1111122 
COMPS,ioos:station:USF.COMPS:NFB:1,2009-05-01T01:36:00Z,25.0840,-81.0960,1.0,31.516,1111122 
COMPS,ioos:station:USF.COMPS:NFB:1,2009-05-01T01:42:00Z,25.0840,-81.0960,1.0,31.061,1111122 
COMPS,ioos:station:USF.COMPS:NFB:1,2009-05-01T01:48:00Z,25.0840,-81.0960,1.0,31.047,1111122 
COMPS,ioos:station:USF.COMPS:NFB:1,2009-05-01T01:54:00Z,25.0840,-81.0960,1.0,31.178,1111122 
COMPS,ioos:station:USF.COMPS:NFB:1,2009-05-01T02:00:00Z,25.0840,-81.0960,1.0,31.237,1111122 
COMPS,ioos:station:USF.COMPS:NFB:1,2009-05-01T02:06:00Z,25.0840,-81.0960,1.0,31.23,1111122 
COMPS,ioos:station:USF.COMPS:NFB:1,2009-05-01T02:12:00Z,25.0840,-81.0960,1.0,31.433,1111122 
COMPS,ioos:station:USF.COMPS:NFB:1,2009-05-01T02:18:00Z,25.0840,-81.0960,1.0,31.557,1111122 
COMPS,ioos:station:USF.COMPS:NFB:1,2009-05-01T02:24:00Z,25.0840,-81.0960,1.0,31.623,1111122 
COMPS,ioos:station:USF.COMPS:NFB:1,2009-05-01T02:30:00Z,25.0840,-81.0960,1.0,31.84,1111122 
COMPS,ioos:station:USF.COMPS:NFB:1,2009-05-01T02:36:00Z,25.0840,-81.0960,1.0,31.695,1111122 
COMPS,ioos:station:USF.COMPS:NFB:1,2009-05-01T02:42:00Z,25.0840,-81.0960,1.0,31.761,1111122 
COMPS,ioos:station:USF.COMPS:NFB:1,2009-05-01T02:48:00Z,25.0840,-81.0960,1.0,31.399,1111122 
COMPS,ioos:station:USF.COMPS:NFB:1,2009-05-01T02:54:00Z,25.0840,-81.0960,1.0,31.833,1111122 
COMPS,ioos:station:USF.COMPS:NFB:1,2009-05-01T03:00:00Z,25.0840,-81.0960,1.0,31.695,1111122 
COMPS,ioos:station:USF.COMPS:NFB:1,2009-05-01T03:06:00Z,25.0840,-81.0960,1.0,31.775,1111122 
COMPS,ioos:station:USF.COMPS:NFB:1,2009-05-01T03:12:00Z,25.0840,-81.0960,1.0,31.73,1111122 
COMPS,ioos:station:USF.COMPS:NFB:1,2009-05-01T03:18:00Z,25.0840,-81.0960,1.0,31.309,1111122 
COMPS,ioos:station:USF.COMPS:NFB:1,2009-05-01T03:24:00Z,25.0840,-81.0960,1.0,31.62,1111122 
COMPS,ioos:station:USF.COMPS:NFB:1,2009-05-01T03:30:00Z,25.0840,-81.0960,1.0,31.482,1111122 
COMPS,ioos:station:USF.COMPS:NFB:1,2009-05-01T03:36:00Z,25.0840,-81.0960,1.0,30.837,1111122 
COMPS,ioos:station:USF.COMPS:NFB:1,2009-05-01T03:42:00Z,25.0840,-81.0960,1.0,31.292,1111122 
COMPS,ioos:station:USF.COMPS:NFB:1,2009-05-01T03:48:00Z,25.0840,-81.0960,1.0,31.219,1111122 
COMPS,ioos:station:USF.COMPS:NFB:1,2009-05-01T03:54:00Z,25.0840,-81.0960,1.0,30.923,1111122 
COMPS,ioos:station:USF.COMPS:NFB:1,2009-05-01T04:00:00Z,25.0840,-81.0960,1.0,31.257,1111122 
COMPS,ioos:station:USF.COMPS:NFB:1,2009-05-01T04:06:00Z,25.0840,-81.0960,1.0,31.309,1111122 
COMPS,ioos:station:USF.COMPS:NFB:1,2009-05-01T04:12:00Z,25.0840,-81.0960,1.0,31.433,1111122 
COMPS,ioos:station:USF.COMPS:NFB:1,2009-05-01T04:18:00Z,25.0840,-81.0960,1.0,31.796,1111122 
COMPS,ioos:station:USF.COMPS:NFB:1,2009-05-01T04:24:00Z,25.0840,-81.0960,1.0,31.454,1111122 
COMPS,ioos:station:USF.COMPS:NFB:1,2009-05-01T04:30:00Z,25.0840,-81.0960,1.0,31.454,1111122 
COMPS,ioos:station:USF.COMPS:NFB:1,2009-05-01T04:36:00Z,25.0840,-81.0960,1.0,31.526,1111122 
COMPS,ioos:station:USF.COMPS:NFB:1,2009-05-01T04:42:00Z,25.0840,-81.0960,1.0,31.44,1111122 
COMPS,ioos:station:USF.COMPS:NFB:1,2009-05-01T04:48:00Z,25.0840,-81.0960,1.0,31.499,1111122 
COMPS,ioos:station:USF.COMPS:NFB:1,2009-05-01T04:54:00Z,25.0840,-81.0960,1.0,31.485,1111122 
COMPS,ioos:station:USF.COMPS:NFB:1,2009-05-01T05:00:00Z,25.0840,-81.0960,1.0,31.667,1111122 
COMPS,ioos:station:USF.COMPS:NFB:1,2009-05-01T05:06:00Z,25.0840,-81.0960,1.0,31.988,1111122 
COMPS,ioos:station:USF.COMPS:NFB:1,2009-05-01T05:12:00Z,25.0840,-81.0960,1.0,31.96,1111122 
COMPS,ioos:station:USF.COMPS:NFB:1,2009-05-01T05:18:00Z,25.0840,-81.0960,1.0,31.918,1111122 
COMPS,ioos:station:USF.COMPS:NFB:1,2009-05-01T05:24:00Z,25.0840,-81.0960,1.0,31.811,1111122 
COMPS,ioos:station:USF.COMPS:NFB:1,2009-05-01T05:30:00Z,25.0840,-81.0960,1.0,31.876,1111122 
COMPS,ioos:station:USF.COMPS:NFB:1,2009-05-01T05:36:00Z,25.0840,-81.0960,1.0,31.962,1111122 
COMPS,ioos:station:USF.COMPS:NFB:1,2009-05-01T05:42:00Z,25.0840,-81.0960,1.0,31.969,1111122 
COMPS,ioos:station:USF.COMPS:NFB:1,2009-05-01T05:48:00Z,25.0840,-81.0960,1.0,31.904,1111122 
COMPS,ioos:station:USF.COMPS:NFB:1,2009-05-01T05:54:00Z,25.0840,-81.0960,1.0,32.135,1111122 
COMPS,ioos:station:USF.COMPS:NFB:1,2009-05-01T06:00:00Z,25.0840,-81.0960,1.0,32.359,1111122 
COMPS,ioos:station:USF.COMPS:NFB:1,2009-05-01T06:06:00Z,25.0840,-81.0960,1.0,32.083,1111122 
COMPS,ioos:station:USF.COMPS:NFB:1,2009-05-01T06:12:00Z,25.0840,-81.0960,1.0,32.09,1111122 
COMPS,ioos:station:USF.COMPS:NFB:1,2009-05-01T06:18:00Z,25.0840,-81.0960,1.0,32.249,1111122 
COMPS,ioos:station:USF.COMPS:NFB:1,2009-05-01T06:24:00Z,25.0840,-81.0960,1.0,32.191,1111122 
COMPS,ioos:station:USF.COMPS:NFB:1,2009-05-01T06:30:00Z,25.0840,-81.0960,1.0,32.415,1111122 
COMPS,ioos:station:USF.COMPS:NFB:1,2009-05-01T06:36:00Z,25.0840,-81.0960,1.0,32.313,1111122 
COMPS,ioos:station:USF.COMPS:NFB:1,2009-05-01T06:42:00Z,25.0840,-81.0960,1.0,30.886,1111122 
COMPS,ioos:station:USF.COMPS:NFB:1,2009-05-01T06:48:00Z,25.0840,-81.0960,1.0,32.428,1111122 
COMPS,ioos:station:USF.COMPS:NFB:1,2009-05-01T06:54:00Z,25.0840,-81.0960,1.0,32.595,1111122 
COMPS,ioos:station:USF.COMPS:NFB:1,2009-05-01T07:00:00Z,25.0840,-81.0960,1.0,32.894,1111122 
COMPS,ioos:station:USF.COMPS:NFB:1,2009-05-01T07:06:00Z,25.0840,-81.0960,1.0,32.53,1111122 
COMPS,ioos:station:USF.COMPS:NFB:1,2009-05-01T07:12:00Z,25.0840,-81.0960,1.0,32.464,1111122 
COMPS,ioos:station:USF.COMPS:NFB:1,2009-05-01T07:18:00Z,25.0840,-81.0960,1.0,32.34,1111122 
COMPS,ioos:station:USF.COMPS:NFB:1,2009-05-01T07:24:00Z,25.0840,-81.0960,1.0,32.164,1111122 
COMPS,ioos:station:USF.COMPS:NFB:1,2009-05-01T07:30:00Z,25.0840,-81.0960,1.0,32.178,1111122 
COMPS,ioos:station:USF.COMPS:NFB:1,2009-05-01T07:36:00Z,25.0840,-81.0960,1.0,32.171,1111122 
COMPS,ioos:station:USF.COMPS:NFB:1,2009-05-01T07:42:00Z,25.0840,-81.0960,1.0,32.164,1111122 
COMPS,ioos:station:USF.COMPS:NFB:1,2009-05-01T07:48:00Z,25.0840,-81.0960,1.0,32.244,1111122 
COMPS,ioos:station:USF.COMPS:NFB:1,2009-05-01T07:54:00Z,25.0840,-81.0960,1.0,32.105,1111122 
COMPS,ioos:station:USF.COMPS:NFB:1,2009-05-01T08:00:00Z,25.0840,-81.0960,1.0,32.105,1111122 
COMPS,ioos:station:USF.COMPS:NFB:1,2009-05-01T08:06:00Z,25.0840,-81.0960,1.0,31.959,1111122 
COMPS,ioos:station:USF.COMPS:NFB:1,2009-05-01T08:12:00Z,25.0840,-81.0960,1.0,31.973,1111122 
COMPS,ioos:station:USF.COMPS:NFB:1,2009-05-01T08:18:00Z,25.0840,-81.0960,1.0,32.164,1111122 
COMPS,ioos:station:USF.COMPS:NFB:1,2009-05-01T08:24:00Z,25.0840,-81.0960,1.0,32.15,1111122 
COMPS,ioos:station:USF.COMPS:NFB:1,2009-05-01T08:30:00Z,25.0840,-81.0960,1.0,32.032,1111122 
COMPS,ioos:station:USF.COMPS:NFB:1,2009-05-01T08:36:00Z,25.0840,-81.0960,1.0,32.098,1111122 
COMPS,ioos:station:USF.COMPS:NFB:1,2009-05-01T08:42:00Z,25.0840,-81.0960,1.0,32.143,1111122 
COMPS,ioos:station:USF.COMPS:NFB:1,2009-05-01T08:48:00Z,25.0840,-81.0960,1.0,32.199,1111122 
COMPS,ioos:station:USF.COMPS:NFB:1,2009-05-01T08:54:00Z,25.0840,-81.0960,1.0,32.171,1111122 
COMPS,ioos:station:USF.COMPS:NFB:1,2009-05-01T09:00:00Z,25.0840,-81.0960,1.0,31.99,1111122 
COMPS,ioos:station:USF.COMPS:NFB:1,2009-05-01T09:06:00Z,25.0840,-81.0960,1.0,32.075,1111122 
COMPS,ioos:station:USF.COMPS:NFB:1,2009-05-01T09:12:00Z,25.0840,-81.0960,1.0,31.908,1111122 
COMPS,ioos:station:USF.COMPS:NFB:1,2009-05-01T09:18:00Z,25.0840,-81.0960,1.0,31.814,1111122 
COMPS,ioos:station:USF.COMPS:NFB:1,2009-05-01T09:24:00Z,25.0840,-81.0960,1.0,32.044,1111122 
COMPS,ioos:station:USF.COMPS:NFB:1,2009-05-01T09:30:00Z,25.0840,-81.0960,1.0,32.374,1111122 
COMPS,ioos:station:USF.COMPS:NFB:1,2009-05-01T09:36:00Z,25.0840,-81.0960,1.0,31.586,1111122 
COMPS,ioos:station:USF.COMPS:NFB:1,2009-05-01T09:42:00Z,25.0840,-81.0960,1.0,31.921,1111122 
COMPS,ioos:station:USF.COMPS:NFB:1,2009-05-01T09:48:00Z,25.0840,-81.0960,1.0,31.722,1111122 
COMPS,ioos:station:USF.COMPS:NFB:1,2009-05-01T09:54:00Z,25.0840,-81.0960,1.0,31.402,1111122 
COMPS,ioos:station:USF.COMPS:NFB:1,2009-05-01T10:00:00Z,25.0840,-81.0960,1.0,31.686,1111122 
COMPS,ioos:station:USF.COMPS:NFB:1,2009-05-01T10:06:00Z,25.0840,-81.0960,1.0,31.783,1111122 
COMPS,ioos:station:USF.COMPS:NFB:1,2009-05-01T10:12:00Z,25.0840,-81.0960,1.0,31.8,1111122 
COMPS,ioos:station:USF.COMPS:NFB:1,2009-05-01T10:18:00Z,25.0840,-81.0960,1.0,31.901,1111122 
COMPS,ioos:station:USF.COMPS:NFB:1,2009-05-01T10:24:00Z,25.0840,-81.0960,1.0,31.915,1111122 
COMPS,ioos:station:USF.COMPS:NFB:1,2009-05-01T10:30:00Z,25.0840,-81.0960,1.0,31.593,1111122 
COMPS,ioos:station:USF.COMPS:NFB:1,2009-05-01T10:36:00Z,25.0840,-81.0960,1.0,31.319,1111122 
COMPS,ioos:station:USF.COMPS:NFB:1,2009-05-01T10:42:00Z,25.0840,-81.0960,1.0,31.2,1111122 
COMPS,ioos:station:USF.COMPS:NFB:1,2009-05-01T10:48:00Z,25.0840,-81.0960,1.0,31.148,1111122 
COMPS,ioos:station:USF.COMPS:NFB:1,2009-05-01T10:54:00Z,25.0840,-81.0960,1.0,30.936,1111122 
COMPS,ioos:station:USF.COMPS:NFB:1,2009-05-01T11:00:00Z,25.0840,-81.0960,1.0,30.745,1111122 
COMPS,ioos:station:USF.COMPS:NFB:1,2009-05-01T11:06:00Z,25.0840,-81.0960,1.0,30.898,1111122 
COMPS,ioos:station:USF.COMPS:NFB:1,2009-05-01T11:12:00Z,25.0840,-81.0960,1.0,30.832,1111122 
COMPS,ioos:station:USF.COMPS:NFB:1,2009-05-01T11:18:00Z,25.0840,-81.0960,1.0,30.838,1111122 
COMPS,ioos:station:USF.COMPS:NFB:1,2009-05-01T11:24:00Z,25.0840,-81.0960,1.0,30.852,1111122 
COMPS,ioos:station:USF.COMPS:NFB:1,2009-05-01T11:30:00Z,25.0840,-81.0960,1.0,30.786,1111122 
COMPS,ioos:station:USF.COMPS:NFB:1,2009-05-01T11:36:00Z,25.0840,-81.0960,1.0,30.726,1111122 
COMPS,ioos:station:USF.COMPS:NFB:1,2009-05-01T11:42:00Z,25.0840,-81.0960,1.0,30.879,1111122 
COMPS,ioos:station:USF.COMPS:NFB:1,2009-05-01T11:48:00Z,25.0840,-81.0960,1.0,30.813,1111122 
COMPS,ioos:station:USF.COMPS:NFB:1,2009-05-01T11:54:00Z,25.0840,-81.0960,1.0,30.9,1111122 
COMPS,ioos:station:USF.COMPS:NFB:1,2009-05-01T12:00:00Z,25.0840,-81.0960,1.0,30.754,1111122 
COMPS,ioos:station:USF.COMPS:NFB:1,2009-05-01T12:06:00Z,25.0840,-81.0960,1.0,30.827,1111122 
COMPS,ioos:station:USF.COMPS:NFB:1,2009-05-01T12:12:00Z,25.0840,-81.0960,1.0,31.046,1111122 
COMPS,ioos:station:USF.COMPS:NFB:1,2009-05-01T12:18:00Z,25.0840,-81.0960,1.0,31.339,1111122 
COMPS,ioos:station:USF.COMPS:NFB:1,2009-05-01T12:24:00Z,25.0840,-81.0960,1.0,31.112,1111122 
COMPS,ioos:station:USF.COMPS:NFB:1,2009-05-01T12:30:00Z,25.0840,-81.0960,1.0,31.112,1111122 
COMPS,ioos:station:USF.COMPS:NFB:1,2009-05-01T12:36:00Z,25.0840,-81.0960,1.0,31.178,1111122 
COMPS,ioos:station:USF.COMPS:NFB:1,2009-05-01T12:42:00Z,25.0840,-81.0960,1.0,31.325,1111122 
COMPS,ioos:station:USF.COMPS:NFB:1,2009-05-01T12:48:00Z,25.0840,-81.0960,1.0,31.252,1111122 
COMPS,ioos:station:USF.COMPS:NFB:1,2009-05-01T12:54:00Z,25.0840,-81.0960,1.0,31.252,1111122 
COMPS,ioos:station:USF.COMPS:NFB:1,2009-05-01T13:00:00Z,25.0840,-81.0960,1.0,31.259,1111122 
COMPS,ioos:station:USF.COMPS:NFB:1,2009-05-01T13:06:00Z,25.0840,-81.0960,1.0,31.112,1111122 
COMPS,ioos:station:USF.COMPS:NFB:1,2009-05-01T13:12:00Z,25.0840,-81.0960,1.0,31.185,1111122 
COMPS,ioos:station:USF.COMPS:NFB:1,2009-05-01T13:18:00Z,25.0840,-81.0960,1.0,31.185,1111122 
COMPS,ioos:station:USF.COMPS:NFB:1,2009-05-01T13:24:00Z,25.0840,-81.0960,1.0,31.618,1111122 
COMPS,ioos:station:USF.COMPS:NFB:1,2009-05-01T13:30:00Z,25.0840,-81.0960,1.0,31.245,1111122 
COMPS,ioos:station:USF.COMPS:NFB:1,2009-05-01T13:36:00Z,25.0840,-81.0960,1.0,31.098,1111122 
COMPS,ioos:station:USF.COMPS:NFB:1,2009-05-01T13:42:00Z,25.0840,-81.0960,1.0,31.165,1111122 
COMPS,ioos:station:USF.COMPS:NFB:1,2009-05-01T13:48:00Z,25.0840,-81.0960,1.0,31.377,1111122 
COMPS,ioos:station:USF.COMPS:NFB:1,2009-05-01T13:54:00Z,25.0840,-81.0960,1.0,31.224,1111122 
COMPS,ioos:station:USF.COMPS:NFB:1,2009-05-01T14:00:00Z,25.0840,-81.0960,1.0,31.078,1111122 
COMPS,ioos:station:USF.COMPS:NFB:1,2009-05-01T14:06:00Z,25.0840,-81.0960,1.0,31.071,1111122 
COMPS,ioos:station:USF.COMPS:NFB:1,2009-05-01T14:12:00Z,25.0840,-81.0960,1.0,31.283,1111122 
COMPS,ioos:station:USF.COMPS:NFB:1,2009-05-01T14:18:00Z,25.0840,-81.0960,1.0,31.203,1111122 
COMPS,ioos:station:USF.COMPS:NFB:1,2009-05-01T14:24:00Z,25.0840,-81.0960,1.0,31.269,1111122 
COMPS,ioos:station:USF.COMPS:NFB:1,2009-05-01T14:30:00Z,25.0840,-81.0960,1.0,31.116,1111122 
COMPS,ioos:station:USF.COMPS:NFB:1,2009-05-01T14:36:00Z,25.0840,-81.0960,1.0,30.302,1111122 
COMPS,ioos:station:USF.COMPS:NFB:1,2009-05-01T14:42:00Z,25.0840,-81.0960,1.0,31.169,1111122 
COMPS,ioos:station:USF.COMPS:NFB:1,2009-05-01T14:48:00Z,25.0840,-81.0960,1.0,31.062,1111122 
COMPS,ioos:station:USF.COMPS:NFB:1,2009-05-01T14:54:00Z,25.0840,-81.0960,1.0,30.321,1111122 
COMPS,ioos:station:USF.COMPS:NFB:1,2009-05-01T15:00:00Z,25.0840,-81.0960,1.0,30.314,1111122 
COMPS,ioos:station:USF.COMPS:NFB:1,2009-05-01T15:06:00Z,25.0840,-81.0960,1.0,30.591,1111122 
COMPS,ioos:station:USF.COMPS:NFB:1,2009-05-01T15:12:00Z,25.0840,-81.0960,1.0,30.664,1111122 
COMPS,ioos:station:USF.COMPS:NFB:1,2009-05-01T15:18:00Z,25.0840,-81.0960,1.0,31.173,1111122 
COMPS,ioos:station:USF.COMPS:NFB:1,2009-05-01T15:24:00Z,25.0840,-81.0960,1.0,31.35,1111122 
COMPS,ioos:station:USF.COMPS:NFB:1,2009-05-01T15:30:00Z,25.0840,-81.0960,1.0,31.402,1111122 
COMPS,ioos:station:USF.COMPS:NFB:1,2009-05-01T15:36:00Z,25.0840,-81.0960,1.0,31.395,1111122 
COMPS,ioos:station:USF.COMPS:NFB:1,2009-05-01T15:42:00Z,25.0840,-81.0960,1.0,31.579,1111122 
COMPS,ioos:station:USF.COMPS:NFB:1,2009-05-01T15:48:00Z,25.0840,-81.0960,1.0,31.551,1111122 
COMPS,ioos:station:USF.COMPS:NFB:1,2009-05-01T15:54:00Z,25.0840,-81.0960,1.0,31.631,1111122 
COMPS,ioos:station:USF.COMPS:NFB:1,2009-05-01T16:00:00Z,25.0840,-81.0960,1.0,31.457,1111122 
COMPS,ioos:station:USF.COMPS:NFB:1,2009-05-01T16:06:00Z,25.0840,-81.0960,1.0,31.502,1111122 
COMPS,ioos:station:USF.COMPS:NFB:1,2009-05-01T16:12:00Z,25.0840,-81.0960,1.0,30.331,1111122 
COMPS,ioos:station:USF.COMPS:NFB:1,2009-05-01T16:18:00Z,25.0840,-81.0960,1.0,30.514,1111122 
COMPS,ioos:station:USF.COMPS:NFB:1,2009-05-01T16:24:00Z,25.0840,-81.0960,1.0,31.526,1111122 
COMPS,ioos:station:USF.COMPS:NFB:1,2009-05-01T16:30:00Z,25.0840,-81.0960,1.0,31.585,1111122 
COMPS,ioos:station:USF.COMPS:NFB:1,2009-05-01T16:36:00Z,25.0840,-81.0960,1.0,31.775,1111122 
COMPS,ioos:station:USF.COMPS:NFB:1,2009-05-01T16:42:00Z,25.0840,-81.0960,1.0,31.557,1111122 
COMPS,ioos:station:USF.COMPS:NFB:1,2009-05-01T16:48:00Z,25.0840,-81.0960,1.0,31.602,1111122 
COMPS,ioos:station:USF.COMPS:NFB:1,2009-05-01T16:54:00Z,25.0840,-81.0960,1.0,31.581,1111122 
COMPS,ioos:station:USF.COMPS:NFB:1,2009-05-01T17:00:00Z,25.0840,-81.0960,1.0,31.798,1111122 
COMPS,ioos:station:USF.COMPS:NFB:1,2009-05-01T17:06:00Z,25.0840,-81.0960,1.0,31.227,1111122 
COMPS,ioos:station:USF.COMPS:NFB:1,2009-05-01T17:12:00Z,25.0840,-81.0960,1.0,31.22,1111122 
COMPS,ioos:station:USF.COMPS:NFB:1,2009-05-01T17:18:00Z,25.0840,-81.0960,1.0,31.199,1111122 
COMPS,ioos:station:USF.COMPS:NFB:1,2009-05-01T17:24:00Z,25.0840,-81.0960,1.0,30.185,1111122 
COMPS,ioos:station:USF.COMPS:NFB:1,2009-05-01T17:30:00Z,25.0840,-81.0960,1.0,30.963,1111122 
COMPS,ioos:station:USF.COMPS:NFB:1,2009-05-01T17:36:00Z,25.0840,-81.0960,1.0,30.87,1111122 
COMPS,ioos:station:USF.COMPS:NFB:1,2009-05-01T17:42:00Z,25.0840,-81.0960,1.0,30.857,1111122 
COMPS,ioos:station:USF.COMPS:NFB:1,2009-05-01T17:48:00Z,25.0840,-81.0960,1.0,30.837,1111122 
COMPS,ioos:station:USF.COMPS:NFB:1,2009-05-01T17:54:00Z,25.0840,-81.0960,1.0,30.803,1111122 
COMPS,ioos:station:USF.COMPS:NFB:1,2009-05-01T18:00:00Z,25.0840,-81.0960,1.0,30.93,1111122 
COMPS,ioos:station:USF.COMPS:NFB:1,2009-05-01T18:06:00Z,25.0840,-81.0960,1.0,31.682,1111122 
COMPS,ioos:station:USF.COMPS:NFB:1,2009-05-01T18:12:00Z,25.0840,-81.0960,1.0,31.797,1111122 
COMPS,ioos:station:USF.COMPS:NFB:1,2009-05-01T18:18:00Z,25.0840,-81.0960,1.0,31.562,1111122 
COMPS,ioos:station:USF.COMPS:NFB:1,2009-05-01T18:24:00Z,25.0840,-81.0960,1.0,31.606,1111122 
COMPS,ioos:station:USF.COMPS:NFB:1,2009-05-01T18:30:00Z,25.0840,-81.0960,1.0,31.47,1111122 
COMPS,ioos:station:USF.COMPS:NFB:1,2009-05-01T18:36:00Z,25.0840,-81.0960,1.0,31.47,1111122 
COMPS,ioos:station:USF.COMPS:NFB:1,2009-05-01T18:42:00Z,25.0840,-81.0960,1.0,31.327,1111122 
COMPS,ioos:station:USF.COMPS:NFB:1,2009-05-01T18:48:00Z,25.0840,-81.0960,1.0,31.255,1111122 
COMPS,ioos:station:USF.COMPS:NFB:1,2009-05-01T18:54:00Z,25.0840,-81.0960,1.0,31.548,1111122 
COMPS,ioos:station:USF.COMPS:NFB:1,2009-05-01T19:00:00Z,25.0840,-81.0960,1.0,29.838,1111122 
COMPS,ioos:station:USF.COMPS:NFB:1,2009-05-01T19:06:00Z,25.0840,-81.0960,1.0,31.191,1111122 
COMPS,ioos:station:USF.COMPS:NFB:1,2009-05-01T19:12:00Z,25.0840,-81.0960,1.0,31.548,1111122 
COMPS,ioos:station:USF.COMPS:NFB:1,2009-05-01T19:18:00Z,25.0840,-81.0960,1.0,31.626,1111122 
COMPS,ioos:station:USF.COMPS:NFB:1,2009-05-01T19:24:00Z,25.0840,-81.0960,1.0,31.112,1111122 
COMPS,ioos:station:USF.COMPS:NFB:1,2009-05-01T19:30:00Z,25.0840,-81.0960,1.0,31.449,1111122 
COMPS,ioos:station:USF.COMPS:NFB:1,2009-05-01T19:36:00Z,25.0840,-81.0960,1.0,31.35,1111122 
COMPS,ioos:station:USF.COMPS:NFB:1,2009-05-01T19:42:00Z,25.0840,-81.0960,1.0,31.316,1111122 
COMPS,ioos:station:USF.COMPS:NFB:1,2009-05-01T19:48:00Z,25.0840,-81.0960,1.0,31.772,1111122 
COMPS,ioos:station:USF.COMPS:NFB:1,2009-05-01T19:54:00Z,25.0840,-81.0960,1.0,31.371,1111122 
COMPS,ioos:station:USF.COMPS:NFB:1,2009-05-01T20:00:00Z,25.0840,-81.0960,1.0,31.735,1111122 
COMPS,ioos:station:USF.COMPS:NFB:1,2009-05-01T20:06:00Z,25.0840,-81.0960,1.0,31.184,1111122 
COMPS,ioos:station:USF.COMPS:NFB:1,2009-05-01T20:12:00Z,25.0840,-81.0960,1.0,30.912,1111122 
COMPS,ioos:station:USF.COMPS:NFB:1,2009-05-01T20:18:00Z,25.0840,-81.0960,1.0,30.854,1111122 
COMPS,ioos:station:USF.COMPS:NFB:1,2009-05-01T20:24:00Z,25.0840,-81.0960,1.0,30.861,1111122 
COMPS,ioos:station:USF.COMPS:NFB:1,2009-05-01T20:30:00Z,25.0840,-81.0960,1.0,30.653,1111122 
COMPS,ioos:station:USF.COMPS:NFB:1,2009-05-01T20:36:00Z,25.0840,-81.0960,1.0,30.453,1111122 
COMPS,ioos:station:USF.COMPS:NFB:1,2009-05-01T20:42:00Z,25.0840,-81.0960,1.0,30.765,1111122 
COMPS,ioos:station:USF.COMPS:NFB:1,2009-05-01T20:48:00Z,25.0840,-81.0960,1.0,30.85,1111122 
COMPS,ioos:station:USF.COMPS:NFB:1,2009-05-01T20:54:00Z,25.0840,-81.0960,1.0,30.707,1111122 
COMPS,ioos:station:USF.COMPS:NFB:1,2009-05-01T21:00:00Z,25.0840,-81.0960,1.0,30.993,1111122 
COMPS,ioos:station:USF.COMPS:NFB:1,2009-05-01T21:06:00Z,25.0840,-81.0960,1.0,30.279,1111122 
COMPS,ioos:station:USF.COMPS:NFB:1,2009-05-01T21:12:00Z,25.0840,-81.0960,1.0,30.785,1111122 
COMPS,ioos:station:USF.COMPS:NFB:1,2009-05-01T21:18:00Z,25.0840,-81.0960,1.0,30.713,1111122 
COMPS,ioos:station:USF.COMPS:NFB:1,2009-05-01T21:24:00Z,25.0840,-81.0960,1.0,30.434,1111122 
COMPS,ioos:station:USF.COMPS:NFB:1,2009-05-01T21:30:00Z,25.0840,-81.0960,1.0,30.734,1111122 
COMPS,ioos:station:USF.COMPS:NFB:1,2009-05-01T21:36:00Z,25.0840,-81.0960,1.0,30.734,1111122 
COMPS,ioos:station:USF.COMPS:NFB:1,2009-05-01T21:42:00Z,25.0840,-81.0960,1.0,30.734,1111122 
COMPS,ioos:station:USF.COMPS:NFB:1,2009-05-01T21:48:00Z,25.0840,-81.0960,1.0,30.532,1111122 
COMPS,ioos:station:USF.COMPS:NFB:1,2009-05-01T21:54:00Z,25.0840,-81.0960,1.0,30.611,1111122 
COMPS,ioos:station:USF.COMPS:NFB:1,2009-05-01T22:00:00Z,25.0840,-81.0960,1.0,30.754,1111122 
COMPS,ioos:station:USF.COMPS:NFB:1,2009-05-01T22:06:00Z,25.0840,-81.0960,1.0,30.617,1111122 
COMPS,ioos:station:USF.COMPS:NFB:1,2009-05-01T22:12:00Z,25.0840,-81.0960,1.0,30.617,1111122 
COMPS,ioos:station:USF.COMPS:NFB:1,2009-05-01T22:18:00Z,25.0840,-81.0960,1.0,30.494,1111122 
COMPS,ioos:station:USF.COMPS:NFB:1,2009-05-01T22:24:00Z,25.0840,-81.0960,1.0,30.3,1111122 
COMPS,ioos:station:USF.COMPS:NFB:1,2009-05-01T22:30:00Z,25.0840,-81.0960,1.0,29.385,1111122 
COMPS,ioos:station:USF.COMPS:NFB:1,2009-05-01T22:36:00Z,25.0840,-81.0960,1.0,30.541,1111122 
COMPS,ioos:station:USF.COMPS:NFB:1,2009-05-01T22:42:00Z,25.0840,-81.0960,1.0,30.333,1111122 
COMPS,ioos:station:USF.COMPS:NFB:1,2009-05-01T22:48:00Z,25.0840,-81.0960,1.0,30.268,1111122 
COMPS,ioos:station:USF.COMPS:NFB:1,2009-05-01T22:54:00Z,25.0840,-81.0960,1.0,30.19,1111122 
COMPS,ioos:station:USF.COMPS:NFB:1,2009-05-01T23:00:00Z,25.0840,-81.0960,1.0,30.313,1111122 
COMPS,ioos:station:USF.COMPS:NFB:1,2009-05-01T23:06:00Z,25.0840,-81.0960,1.0,30.196,1111122 
COMPS,ioos:station:USF.COMPS:NFB:1,2009-05-01T23:12:00Z,25.0840,-81.0960,1.0,30.028,1111122 
COMPS,ioos:station:USF.COMPS:NFB:1,2009-05-01T23:18:00Z,25.0840,-81.0960,1.0,29.982,1111122 
COMPS,ioos:station:USF.COMPS:NFB:1,2009-05-01T23:24:00Z,25.0840,-81.0960,1.0,31.08,1111122 
COMPS,ioos:station:USF.COMPS:NFB:1,2009-05-01T23:30:00Z,25.0840,-81.0960,1.0,29.872,1111122 
COMPS,ioos:station:USF.COMPS:NFB:1,2009-05-01T23:36:00Z,25.0840,-81.0960,1.0,29.878,1111122 
COMPS,ioos:station:USF.COMPS:NFB:1,2009-05-01T23:42:00Z,25.0840,-81.0960,1.0,29.611,1111122 
COMPS,ioos:station:USF.COMPS:NFB:1,2009-05-01T23:48:00Z,25.0840,-81.0960,1.0,29.67,1111122 
COMPS,ioos:station:USF.COMPS:NFB:1,2009-05-01T23:54:00Z,25.0840,-81.0960,1.0,29.807,1111122 
COMPS,ioos:station:USF.COMPS:NFB:1,2009-05-02T00:00:00Z,25.0840,-81.0960,1.0,30.015,1111122 
COMPS,ioos:station:USF.COMPS:NFB:1,2009-05-02T00:06:00Z,25.0840,-81.0960,1.0,30.002,1111122 
COMPS,ioos:station:USF.COMPS:NFB:1,2009-05-02T00:12:00Z,25.0840,-81.0960,1.0,30.145,1111122 
COMPS,ioos:station:USF.COMPS:NFB:1,2009-05-02T00:18:00Z,25.0840,-81.0960,1.0,30.119,1111122 
COMPS,ioos:station:USF.COMPS:NFB:1,2009-05-02T00:24:00Z,25.0840,-81.0960,1.0,30.197,1111122 
COMPS,ioos:station:USF.COMPS:NFB:1,2009-05-02T00:30:00Z,25.0840,-81.0960,1.0,30.119,1111122 
COMPS,ioos:station:USF.COMPS:NFB:1,2009-05-02T00:36:00Z,25.0840,-81.0960,1.0,30.191,1111122 
COMPS,ioos:station:USF.COMPS:NFB:1,2009-05-02T00:42:00Z,25.0840,-81.0960,1.0,30.197,1111122 
COMPS,ioos:station:USF.COMPS:NFB:1,2009-05-02T00:48:00Z,25.0840,-81.0960,1.0,30.119,1111122 
COMPS,ioos:station:USF.COMPS:NFB:1,2009-05-02T00:54:00Z,25.0840,-81.0960,1.0,30.132,1111122 
COMPS,ioos:station:USF.COMPS:NFB:1,2009-05-02T01:00:00Z,25.0840,-81.0960,1.0,30.217,1111122 
COMPS,ioos:station:USF.COMPS:NFB:1,2009-05-02T01:06:00Z,25.0840,-81.0960,1.0,30.1,1111122 
COMPS,ioos:station:USF.COMPS:NFB:1,2009-05-02T01:12:00Z,25.0840,-81.0960,1.0,29.937,1111122 
COMPS,ioos:station:USF.COMPS:NFB:1,2009-05-02T01:18:00Z,25.0840,-81.0960,1.0,29.885,1111122 
COMPS,ioos:station:USF.COMPS:NFB:1,2009-05-02T01:24:00Z,25.0840,-81.0960,1.0,29.957,1111122 
COMPS,ioos:station:USF.COMPS:NFB:1,2009-05-02T01:30:00Z,25.0840,-81.0960,1.0,29.957,1111122 
COMPS,ioos:station:USF.COMPS:NFB:1,2009-05-02T01:36:00Z,25.0840,-81.0960,1.0,30.225,1111122 